When you browse on this site, cookies collect data to enhance your experience and personalize the content and advertising you see.
Visit our Privacy Policy to learn more. By continuing to use the site, you agree to this use of cookies and data.
  • In United Kingdom
  • List of Countries
  • For 7 days
  • Water Temperature
  • Satellite Maps
  • Weather Map
  • Weather Widgets
  • user-avatar
    Login

    Hourly Weather Hoeryŏng

    Today, 23 April, Tuesday

    Time Temperature Precipitation Wind Pressure Humidity
    00:00 +20°C° 0 mm 1 mps 755 mmHg 39%
    01:00 +20°C° 0 mm 1 mps 755 mmHg 42%
    02:00 +19°C° 0 mm 1 mps 755 mmHg 45%
    03:00 +19°C° 0 mm 1 mps 755 mmHg 48%
    04:00 +16°C° 0 mm 0 mps 754 mmHg 52%
    05:00 +16°C° 0 mm 0 mps 754 mmHg 55%
    06:00 +18°C° 0 mm 0 mps 754 mmHg 53%
    07:00 +21°C° 0 mm 1 mps 754 mmHg 51%
    08:00 +23°C° 0 mm 1 mps 754 mmHg 49%
    09:00 +24°C° 0 mm 1 mps 754 mmHg 47%
    10:00 +25°C° 0 mm 1 mps 754 mmHg 45%
    11:00 +26°C° 0 mm 1 mps 753 mmHg 43%
    12:00 +26°C° 0 mm 1 mps 753 mmHg 44%
    13:00 +26°C° 0 mm 1 mps 753 mmHg 44%
    14:00 +26°C° 0 mm 1 mps 752 mmHg 44%
    15:00 +25°C° 0 mm 1 mps 752 mmHg 47%
    16:00 +25°C° 0 mm 1 mps 752 mmHg 50%
    17:00 +24°C° 0 mm 1 mps 752 mmHg 53%
    18:00 +23°C° 0.6 mm 1 mps 752 mmHg 59%
    19:00 +22°C° 0.6 mm 1 mps 752 mmHg 65%
    20:00 +21°C° 0.6 mm 1 mps 752 mmHg 71%
    21:00 +20°C° 2.3 mm 1 mps 752 mmHg 75%
    22:00 +20°C° 2.3 mm 1 mps 752 mmHg 79%
    23:00 +19°C° 2.3 mm 1 mps 752 mmHg 83%

    Tomorrow, 24 April, Wednesday

    Time Temperature Precipitation Wind Pressure Humidity
    00:00 +19°C° 1.1 mm 1 mps 751 mmHg 84%
    01:00 +19°C° 1.1 mm 1 mps 751 mmHg 85%
    02:00 +19°C° 1.1 mm 1 mps 750 mmHg 86%
    03:00 +19°C° 0.3 mm 1 mps 750 mmHg 86%
    04:00 +19°C° 0.3 mm 1 mps 750 mmHg 86%
    05:00 +19°C° 0.3 mm 1 mps 749 mmHg 86%
    06:00 +19°C° 0 mm 1 mps 749 mmHg 81%
    07:00 +20°C° 0 mm 1 mps 749 mmHg 76%
    08:00 +21°C° 0 mm 1 mps 750 mmHg 71%
    09:00 +22°C° 0 mm 1 mps 749 mmHg 66%
    10:00 +23°C° 0 mm 1 mps 749 mmHg 62%
    11:00 +24°C° 0 mm 1 mps 749 mmHg 57%
    12:00 +25°C° 0.2 mm 1 mps 748 mmHg 57%
    13:00 +25°C° 0.2 mm 1 mps 748 mmHg 56%
    14:00 +25°C° 0.2 mm 1 mps 748 mmHg 55%
    15:00 +25°C° 0.2 mm 1 mps 748 mmHg 57%
    16:00 +24°C° 0.2 mm 1 mps 748 mmHg 59%
    17:00 +24°C° 0.2 mm 1 mps 748 mmHg 61%
    18:00 +23°C° 0 mm 1 mps 748 mmHg 64%
    19:00 +22°C° 0 mm 1 mps 749 mmHg 67%
    20:00 +20°C° 0 mm 2 mps 749 mmHg 71%
    21:00 +19°C° 0 mm 2 mps 749 mmHg 73%
    22:00 +18°C° 0 mm 2 mps 750 mmHg 74%
    23:00 +17°C° 0 mm 2 mps 750 mmHg 76%

    Day after tomorrow, 25 April, Thursday

    Time Temperature Precipitation Wind Pressure Humidity
    00:00 +17°C° 0 mm 2 mps 750 mmHg 77%
    01:00 +16°C° 0 mm 2 mps 750 mmHg 78%
    02:00 +16°C° 0 mm 2 mps 749 mmHg 78%
    03:00 +15°C° 0 mm 2 mps 749 mmHg 76%
    04:00 +15°C° 0 mm 2 mps 750 mmHg 74%
    05:00 +15°C° 0 mm 2 mps 750 mmHg 72%
    06:00 +15°C° 0 mm 2 mps 750 mmHg 66%
    07:00 +16°C° 0 mm 2 mps 750 mmHg 60%
    08:00 +16°C° 0 mm 2 mps 750 mmHg 54%
    09:00 +15°C° 0.4 mm 2 mps 750 mmHg 57%
    10:00 +14°C° 0.4 mm 2 mps 751 mmHg 61%
    11:00 +13°C° 0.4 mm 3 mps 751 mmHg 65%
    12:00 +12°C° 2.7 mm 3 mps 751 mmHg 68%
    13:00 +11°C° 2.7 mm 3 mps 751 mmHg 72%
    14:00 +10°C° 2.7 mm 3 mps 750 mmHg 76%
    15:00 +10°C° 0.3 mm 3 mps 751 mmHg 76%
    16:00 +10°C° 0.3 mm 3 mps 751 mmHg 75%
    17:00 +9°C° 0.3 mm 3 mps 751 mmHg 75%
    18:00 +9°C° 0.2 mm 3 mps 751 mmHg 75%
    19:00 +9°C° 0.2 mm 3 mps 752 mmHg 74%
    20:00 +9°C° 0.2 mm 3 mps 752 mmHg 74%
    21:00 +9°C° 0.1 mm 3 mps 752 mmHg 73%
    22:00 +9°C° 0.1 mm 3 mps 752 mmHg 73%
    23:00 +9°C° 0.1 mm 3 mps 752 mmHg 72%

    26 April, Friday

    Time Temperature Precipitation Wind Pressure Humidity
    00:00 +9°C° 0 mm 2 mps 752 mmHg 73%
    01:00 +8°C° 0 mm 2 mps 752 mmHg 73%
    02:00 +8°C° 0 mm 2 mps 752 mmHg 73%
    03:00 +8°C° 0 mm 2 mps 752 mmHg 74%
    04:00 +7°C° 0 mm 2 mps 753 mmHg 75%
    05:00 +7°C° 0 mm 2 mps 753 mmHg 77%
    06:00 +8°C° 0 mm 2 mps 753 mmHg 71%
    07:00 +10°C° 0 mm 2 mps 754 mmHg 66%
    08:00 +12°C° 0 mm 2 mps 755 mmHg 61%
    09:00 +14°C° 0 mm 2 mps 755 mmHg 55%
    10:00 +15°C° 0 mm 2 mps 755 mmHg 50%
    11:00 +18°C° 0 mm 1 mps 755 mmHg 44%
    12:00 +18°C° 0 mm 1 mps 755 mmHg 43%
    13:00 +19°C° 0 mm 1 mps 755 mmHg 41%
    14:00 +19°C° 0 mm 1 mps 755 mmHg 40%
    15:00 +19°C° 0 mm 1 mps 755 mmHg 41%
    16:00 +18°C° 0 mm 1 mps 755 mmHg 42%
    17:00 +18°C° 0 mm 1 mps 755 mmHg 43%
    18:00 +16°C° 0 mm 1 mps 756 mmHg 47%
    19:00 +15°C° 0 mm 2 mps 757 mmHg 50%
    20:00 +14°C° 0 mm 2 mps 757 mmHg 53%
    21:00 +13°C° 0 mm 2 mps 758 mmHg 57%
    22:00 +13°C° 0 mm 1 mps 758 mmHg 61%
    23:00 +12°C° 0 mm 1 mps 758 mmHg 65%

    27 April, Saturday

    Time Temperature Precipitation Wind Pressure Humidity
    00:00 +12°C° 0 mm 1 mps 758 mmHg 66%
    01:00 +11°C° 0 mm 1 mps 758 mmHg 68%
    02:00 +11°C° 0 mm 1 mps 758 mmHg 70%
    03:00 +10°C° 0 mm 1 mps 758 mmHg 70%
    04:00 +10°C° 0 mm 1 mps 759 mmHg 71%
    05:00 +10°C° 0 mm 1 mps 759 mmHg 71%
    06:00 +12°C° 0 mm 1 mps 759 mmHg 66%
    07:00 +13°C° 0 mm 1 mps 760 mmHg 61%
    08:00 +15°C° 0 mm 1 mps 760 mmHg 56%
    09:00 +16°C° 0 mm 1 mps 760 mmHg 50%
    10:00 +19°C° 0 mm 1 mps 760 mmHg 45%
    11:00 +19°C° 0 mm 2 mps 759 mmHg 39%
    12:00 +19°C° 0 mm 2 mps 759 mmHg 37%
    13:00 +20°C° 0 mm 3 mps 759 mmHg 35%
    14:00 +20°C° 0 mm 3 mps 758 mmHg 34%
    15:00 +19°C° 0 mm 3 mps 758 mmHg 34%
    16:00 +19°C° 0 mm 3 mps 758 mmHg 35%
    17:00 +18°C° 0 mm 3 mps 758 mmHg 36%
    18:00 +17°C° 0 mm 2 mps 758 mmHg 38%
    19:00 +16°C° 0 mm 2 mps 759 mmHg 40%
    20:00 +15°C° 0 mm 1 mps 759 mmHg 41%
    21:00 +14°C° 0 mm 1 mps 759 mmHg 43%
    22:00 +14°C° 0 mm 1 mps 759 mmHg 44%
    23:00 +13°C° 0 mm 0 mps 759 mmHg 46%

    28 April, Sunday

    Time Temperature Precipitation Wind Pressure Humidity
    00:00 +13°C° 0 mm 0 mps 759 mmHg 47%
    01:00 +13°C° 0 mm 1 mps 759 mmHg 48%
    02:00 +13°C° 0 mm 1 mps 759 mmHg 50%
    03:00 +13°C° 0 mm 1 mps 759 mmHg 51%
    04:00 +13°C° 0 mm 1 mps 759 mmHg 53%
    05:00 +13°C° 0 mm 1 mps 759 mmHg 54%
    06:00 +13°C° 0.4 mm 1 mps 759 mmHg 59%
    07:00 +13°C° 0.4 mm 1 mps 759 mmHg 63%
    08:00 +13°C° 0.4 mm 1 mps 760 mmHg 68%
    09:00 +13°C° 0.4 mm 1 mps 759 mmHg 67%
    10:00 +14°C° 0.4 mm 1 mps 759 mmHg 67%
    11:00 +15°C° 0.4 mm 1 mps 759 mmHg 66%
    12:00 +16°C° 0 mm 2 mps 759 mmHg 60%
    13:00 +16°C° 0 mm 2 mps 758 mmHg 54%
    14:00 +17°C° 0 mm 3 mps 758 mmHg 48%
    15:00 +17°C° 0 mm 3 mps 757 mmHg 49%
    16:00 +17°C° 0 mm 2 mps 757 mmHg 50%
    17:00 +16°C° 0 mm 2 mps 756 mmHg 51%
    18:00 +16°C° 0 mm 1 mps 756 mmHg 54%
    19:00 +15°C° 0 mm 1 mps 757 mmHg 57%
    20:00 +13°C° 0 mm 0 mps 757 mmHg 60%
    21:00 +14°C° 0 mm 1 mps 756 mmHg 62%
    22:00 +13°C° 0 mm 1 mps 756 mmHg 64%
    23:00 +13°C° 0 mm 1 mps 756 mmHg 66%
    Show more